Location: Cormont
(50.5693°N, 1.7416°E)
Time: 05:30:20
(UTC+00:00)

ATLAS CENTAUR R/B - Pass Details

Date: 21 October 2019
Orbit: 456 x 692 km, 64.6° (Epoch: 31 October)

Event Time Altitude Azimuth Distance (km) Brightness Sun altitude
Rises 18:22:38 0° 316° (NW) 2,999 5.8 -15.4°
Reaches altitude 10° 18:25:40 10° 334° (NNW) 2,045 4.6 -15.9°
Maximum altitude 18:28:54 18° 19° (NNE) 1,521 3.4 -16.4°
Enters shadow 18:30:12 16° 41° (NE) 1,592 3.3 -16.6°
